Other Public Products
Issued by NWS Grand Forks, ND

Home | Current Version | Previous Version | Text Only | Print | Product List | Glossary On
Versions: 1 2 3 4 5 6 7 8 9 10 11 12 13 14 15 16 17 18 19 20 21 22 23 24 25 26 27 28 29 30 31 32 33 34 35 36 37 38 39 40 41 42 43 44 45 46 47 48 49 50
000
FPUS83 KFGF 200731
OPUFGF
PRAIRIE TO PINES WEATHER ROUNDUP
NATIONAL WEATHER SERVICE EASTERN NORTH DAKOTA/GRAND FORKS ND
100 AM CST SAT DEC 20 2014

 **SATELLITE DATA USED TO AUGMENT SKY COVER AT AUTOMATED STATIONS**
 *****  WEATHER ACROSS EASTERN NORTH DAKOTA  *****

CITY           SKY/WX    TMP DP  RH WIND       PRES   REMARKS
GRAND FORKS    CLOUDY    30  28  92 S5        29.99F
GRAND FORKS AF CLOUDY    29  29 100 W2        29.99F
GRAND CITY NWS   N/A     30 N/A N/A MISG        N/A
BUXTON           N/A     30  29  98 S3          N/A
DEVILS LAKE    CLOUDY    23  18  80 CALM      29.95S
FARGO          CLOUDY    31  28  89 S7        30.01S WCI  24
WAHPETON ARPT  CLOUDY    30  28  93 S6        30.04S WCI  24
$$

 *****  WEATHER ACROSS CENTRAL AND WESTERN NORTH DAKOTA  *****

CITY           SKY/WX    TMP DP  RH WIND       PRES   REMARKS
JAMESTOWN      FOG       21  20  96 S5        29.97R VSB 1/4 WCI  15
BISMARCK       FOG       15  14  95 E5        29.95S VSB 1   WCI   8
MINOT          FOG       22  19  89 SW5       29.93S VSB 1/4 WCI  16
MINOT AFB      FOG       23  23 100 CALM      29.93S VSB 1/2
GARRISON         N/A     25  23  92 SE6       29.91F WCI  18
WILLISTON      FOG       13  12  96 CALM      29.89F VSB 1/4
DICKINSON      CLEAR     22  17  81 S3        29.87S
HETTINGER      CLEAR     18  13  80 W3        29.90F
$$

 *****  OTHER OBSERVATIONS NORTHEAST NORTH DAKOTA  *****

CITY           SKY/WX    TMP DP  RH WIND       PRES   REMARKS
WALHALLA         N/A     27  27 100 CALM      30.00S
LANGDON        CLOUDY    25  25 100 CALM      29.95S FOG
CAVALIER       CLOUDY    28  27  93 CALM      30.00S
GRAFTON        NOT AVBL
CANDO          CLOUDY    25  25 100 CALM      29.97S FOG
FORT TOTTEN      N/A     23  22  96 W3        29.95S
ROLLA          CLOUDY    23  23 100 SW5       29.95S FOG     WCI  17
RUGBY          CLOUDY    23  23 100 NW3       29.96S FOG
 ***** THE ABOVE OBSERVATIONS ARE NON NWS ARE NOT QUALITY
        CONTROLLED AND MAY MIS-REPORT RAIN FOR SNOW...
$$

 *****  OTHER OBSERVATIONS SOUTHEAST NORTH DAKOTA *****

CITY           SKY/WX    TMP DP  RH WIND       PRES   REMARKS
COOPERSTOWN    NOT AVBL
VALLEY CITY    FOG       25  25 100 SW8       29.98S VSB 3/4 WCI  16
OAKES            N/A     27  27 100 S13       29.99F FOG     WCI  16
GWINNER        CLOUDY    32  32 100 MISG      30.01S
SHEYENNE NWR     N/A     30  28  92 SW9       29.95  WCI  22
BUFFALO        NOT AVBL
WYNDMERE         N/A     28  28 100 SW9         N/A  WCI  20
 ***** THE ABOVE OBSERVATIONS ARE NON NWS ARE NOT QUALITY
       CONTROLLED AND MAY MIS-REPORT RAIN FOR SNOW...
$$

  *****  WEATHER ACROSS NORTHERN MINNESOTA  *****

CITY           SKY/WX    TMP DP  RH WIND       PRES   REMARKS
FLAG ISLAND    CLOUDY    25  23  93 S9        30.03S FOG     WCI  15
WARROAD        CLOUDY    27  21  80 SE7       30.02F FOG     WCI  19
ROSEAU         CLOUDY    27  23  86 SE6       30.01F FOG     WCI  20
HALLOCK        CLOUDY    28  28 100 CALM      29.99F FOG
THF RVR FALLS  CLOUDY    30  28  93 S8        30.01S WCI  23
HALSTAD          N/A     30  28  92 SW9         N/A  WCI  22
FOSSTON        CLOUDY    28  27  93 S9        30.01S FOG     WCI  20
BAUDETTE       LGT SNOW  25  22  88 SE3       30.03S FOG
WASKISH        LGT SNOW  27  25  93 CALM      30.04S
CROOKSTON      MOCLDY    30  28  93 SW7       30.01F FOG     WCI  23
$$
  *****  WEATHER ACROSS CENTRAL AND WEST MINNESOTA  *****

CITY           SKY/WX    TMP DP  RH WIND       PRES   REMARKS
BEMIDJI        CLOUDY    26  25  99 SE5       30.02S FOG     WCI  20
PARK RAPIDS    CLOUDY    30  28  92 S10       30.02S FOG     WCI  21
WADENA         CLOUDY    28  28 100 S7        30.04R FOG     WCI  21
DETROIT LAKES  CLOUDY    30  30 100 S10       30.02S FOG     WCI  21
MOORHEAD       CLOUDY    30  30 100 S9        30.03S WCI  22
FERGUS FALLS   CLOUDY    30  28  93 S9        30.07S FOG     WCI  22
ELBOW LAKE     CLOUDY    29  29  99 S13       30.04R FOG     WCI  19
MORRIS MN      MOCLDY    30  28  93 S12       30.04F FOG     WCI  21
STAPLES        CLOUDY    28  28 100 S9        30.05S FOG     WCI  20
WHEATON        CLOUDY    28  27  93 S7        30.06S WCI  21
$$
  *****  WEATHER ELSEWHERE ACROSS MINNESOTA  *****

CITY           SKY/WX    TMP DP  RH WIND       PRES   REMARKS
DULUTH         CLOUDY    25  22  88 SE8       30.11F FOG     WCI  16
INTRNTL FALLS  LGT SNOW  25  22  88 SE5       30.06F FOG     WCI  19
ELY            CLOUDY    25  23  93 S7        30.10S FOG     WCI  17
CLOQUET        CLOUDY    25  23  93 SE5       30.11F FOG     WCI  19
BRAINERD       CLOUDY    28  27  96 S8        30.08S FOG     WCI  20
HIBBING        CLOUDY    26  22  84 SE6       30.08F FOG     WCI  19
ALEXANDRIA     CLOUDY    30  27  88 S15       30.05F FOG     WCI  19
SAINT CLOUD    CLOUDY    32  27  81 S12       30.11S HAZE    WCI  23
MINNEAPOLIS    CLOUDY    29  24  82 S8        30.16F HAZE    WCI  21
$$

  *****  WEATHER ACROSS SOUTH DAKOTA  *****

CITY           SKY/WX    TMP DP  RH WIND       PRES   REMARKS
SIOUX FALLS    CLOUDY    31  28  89 S8        30.05F WCI  23
BROOKINGS      NOT AVBL
WATERTOWN      CLOUDY    29  27  92 S10       30.00F FOG     WCI  20
HURON          CLOUDY    28  26  92 S7        30.02S FOG     WCI  21
SISSETON         N/A     30  28  92 SW9       30.02R WCI  22
ABERDEEN       CLOUDY    28  25  88 S12       30.01  FOG     WCI  18
MITCHELL       CLOUDY    28  27  96 S8        30.04F FOG     WCI  20
PIERRE         FOG       15  13  91 CALM      29.96S VSB 1/2
MOBRIDGE       CLEAR     20  18  92 SE6       29.93  WCI  12
RAPID CITY     CLEAR     24  16  71 CALM      29.90
$$

  *****  SOME WEATHER IN NEARBY STATES *****

CITY           SKY/WX    TMP DP  RH WIND       PRES   REMARKS
GLASGOW MT     CLOUDY    30  26  85 E13       29.81F WCI  20
GREAT FALLS MT MOCLDY    38  27  64 SW18      29.85R
CHEYENNE WY    CLEAR     30  15  53 SW9       29.98S WCI  22
SCOTTSBLUFF NE PTCLDY    14  10  84 E5        29.98F WCI   6
OMAHA NE       FRZ DRZL  31  30  96 SE10      30.14S FOG     WCI  22
DES MOINES IA  LGT SNOW  32  30  92 S6        30.18S FOG
DAVENPORT IA   CLOUDY    29  23  78 S7        30.26  WCI  22
CHICAGO IL     CLOUDY    29  23  78 CALM      30.26S
EAU CLAIRE WI  CLOUDY    28  21  75 SE3       30.20S
LA CROSSE WI   CLOUDY    30  21  69 S8        30.23F WCI  22
$$

  *****  SOME NATIONAL WEATHER *****

CITY           SKY/WX    TMP DP  RH WIND       PRES   REMARKS
LA GUARDIA NY  CLOUDY    32  22  66 N12       30.19S WCI  23
RALEIGH NC     CLOUDY    37  30  75 NE3       30.23S
ATLANTA GA     LGT RAIN  42  37  82 N6        30.12
NEW ORLEANS LA CLOUDY    52  49  89 NE13      30.06F
OKLAHOMA CITY  CLOUDY    40  37  89 S3        30.20
ALBUQUERQUE NM PTCLDY    33  24  69 N6        30.20F
SALT LAKE CITY LGT RAIN  40  33  76 NW7       30.15S
LOS ANGELES CA CLEAR     57  48  72 S3        30.17F
BOISE ID       PTCLDY    37  33  85 SE10      30.09R
SEATTLE WA     CLOUDY    46  36  68 SE7       29.87S
$$

*** WEATHER ACROSS MANITOBA...SASKATCHEWAN AND ONTARIO ***
                ***ONTARIO***

CITY           SKY/WX    TMP DP  RH WIND       PRES   REMARKS
GERALDTON      LGT SNOW   1  -2  85 E2        30.20F FOG
THUNDER BAY    CLOUDY    23  21  93 W2        30.20
SIOUX LOOKOUT  FLURRIES  21  19  93 SE3       30.08F
TORONTO        PTCLDY    25  19  80 N8        30.24F WCI  16
BIG TROUT LK   FLURRIES  18  18 100 SW5       30.12R WCI  11
PICKLE LAKE    NOT AVBL
DRYDEN         CLOUDY    23  21  93 S6        30.06S FOG     WCI  16
KENORA         LGT SNOW  23  23 100 SE7       30.03  FOG     WCI  15
$$
                *** MANITOBA***

CITY           SKY/WX    TMP DP  RH WIND       PRES   REMARKS
BRANDON        FRZ DRZL  23  21  93 E2        29.98R FOG
DAUPHIN        CLOUDY    21  19  93 SW3       29.99F
ISLAND LAKE    FLURRIES  18  16  93 SE3       30.05S
PILOT MOUND      N/A     25  23  93 S1          N/A
THE PAS        CLOUDY    18  16  93 SE3       29.98S FOG
THOMPSON       FLURRIES  16  14  93 S3        30.01S
WINNIPEG       CLOUDY    27  25  93 S5        30.02  FOG     WCI  21
LYNN LAKE      CLOUDY    14  12  92 S5        29.94S FOG     WCI   6
CHURCHILL      FLURRIES  10   7  85 NW12      30.01S WCI  -4
GILLAM         LGT SNOW  14  10  85 SW3       30.05R
$$
                ***SASKATCHEWAN***

CITY           SKY/WX    TMP DP  RH WIND       PRES   REMARKS
ESTEVAN        FOG       21  19  93 E5        29.90F VSB 1/4 WCI  15
KINDERSLEY     CLOUDY    23  21  93 S7        29.67S WCI  15
LLOYDMINSTER   CLOUDY    14  12  92 SE9       29.69S WCI   2
PRINCE ALBERT  CLOUDY    16  16 100 SE6       29.88  FOG     WCI   7
REGINA         FOG       16  14  93 SE13      29.86F VSB 3/8 WCI   2



USA.gov is the U.S. government's official web portal to all federal, state and local government web resources and services.